| time (UTC) | temp C | wind direction | speed KPH | gust KPH | rain 1hr cm | rain 24hr cm | rain mn cm | humidity % | barometer mb |
| 20260508205008 | 15 | 110 | 14.5 | 14.5 | 0.00 | 0.00 | 0.00 | 54 | 1017.9 |
| 20260508204504 | 15 | 110 | 14.5 | 14.5 | 0.00 | 0.00 | 0.00 | 54 | 1017.9 |
| 20260508203504 | 15 | 110 | 14.5 | 14.5 | 0.00 | 0.00 | 0.00 | 54 | 1017.9 |
| 20260508202007 | 15 | 110 | 14.5 | 14.5 | 0.00 | 0.00 | 0.00 | 54 | 1017.9 |
| 20260508200504 | 15 | 110 | 14.5 | 14.5 | 0.00 | 0.00 | 0.00 | 54 | 1017.9 |
| 20260508195504 | 16 | 190 | 4.8 | 4.8 | 0.00 | 0.00 | 0.00 | 51 | 1016.9 |
| 20260508195007 | 16 | 190 | 4.8 | 4.8 | 0.00 | 0.00 | 0.00 | 51 | 1016.9 |
| 20260508194504 | 16 | 190 | 4.8 | 4.8 | 0.00 | 0.00 | 0.00 | 51 | 1016.9 |
| 20260508193008 | 16 | 190 | 4.8 | 4.8 | 0.00 | 0.00 | 0.00 | 51 | 1016.9 |
| 20260508192504 | 16 | 190 | 4.8 | 4.8 | 0.00 | 0.00 | 0.00 | 51 | 1016.9 |
| 20260508192007 | 16 | 190 | 4.8 | 4.8 | 0.00 | 0.00 | 0.00 | 51 | 1016.9 |
| 20260508190505 | 16 | 190 | 4.8 | 9.7 | 0.00 | 0.00 | 0.00 | 51 | 1016.9 |
| 20260508185504 | 16 | 190 | 9.7 | 9.7 | 0.00 | 0.00 | 0.00 | 51 | 1015.9 |
| 20260508184505 | 16 | 190 | 9.7 | 9.7 | 0.00 | 0.00 | 0.00 | 51 | 1015.9 |
| 20260508182504 | 16 | 190 | 9.7 | 9.7 | 0.00 | 0.00 | 0.00 | 51 | 1015.9 |
| 20260508180503 | 16 | 190 | 9.7 | 12.9 | 0.00 | 0.00 | 0.00 | 51 | 1015.9 |
| 20260508180004 | 16 | 190 | 9.7 | 12.9 | 0.00 | 0.00 | 0.00 | 51 | 1015.9 |
| 20260508175007 | 17 | 180 | 12.9 | 12.9 | 0.00 | 0.00 | 0.00 | 48 | 1015.9 |
| 20260508174504 | 17 | 180 | 12.9 | 12.9 | 0.00 | 0.00 | 0.00 | 48 | 1015.9 |
| 20260508174007 | 17 | 180 | 12.9 | 12.9 | 0.00 | 0.00 | 0.00 | 48 | 1015.9 |
| 20260508173007 | 17 | 180 | 12.9 | 12.9 | 0.00 | 0.00 | 0.00 | 48 | 1015.9 |
| 20260508172007 | 17 | 180 | 12.9 | 12.9 | 0.00 | 0.00 | 0.00 | 48 | 1015.9 |
| 20260508165008 | 17 | 110 | 16.1 | 16.1 | 0.00 | 0.00 | 0.00 | 39 | 1015.9 |
| 20260508161504 | 17 | 110 | 16.1 | 16.1 | 0.00 | 0.00 | 0.00 | 39 | 1015.9 |
| 20260508155007 | 17 | 150 | 14.5 | 14.5 | 0.00 | 0.00 | 0.00 | 41 | 1015.9 |
| 20260508154503 | 17 | 150 | 14.5 | 14.5 | 0.00 | 0.00 | 0.00 | 41 | 1015.9 |
| 20260508153505 | 17 | 150 | 14.5 | 14.5 | 0.00 | 0.00 | 0.00 | 41 | 1015.9 |
| 20260508153007 | 17 | 150 | 14.5 | 14.5 | 0.00 | 0.00 | 0.00 | 41 | 1015.9 |
| 20260508144006 | 17 | 100 | 19.3 | 19.3 | 0.00 | 0.00 | 0.00 | 45 | 1015.9 |
| 20260508140004 | 17 | 100 | 19.3 | 19.3 | 0.00 | 0.00 | 0.00 | 45 | 1015.9 |
| 20260508134007 | 17 | 130 | 16.1 | 16.1 | 0.00 | 0.00 | 0.00 | 48 | 1016.9 |
| 20260508132504 | 17 | 130 | 16.1 | 16.1 | 0.00 | 0.00 | 0.00 | 48 | 1016.9 |
| 20260508132007 | 17 | 130 | 16.1 | 16.1 | 0.00 | 0.00 | 0.00 | 48 | 1016.9 |
| 20260508124007 | 17 | 100 | 14.5 | 14.5 | 0.00 | 0.00 | 0.00 | 45 | 1016.9 |
| 20260508122503 | 17 | 100 | 14.5 | 14.5 | 0.00 | 0.00 | 0.00 | 45 | 1016.9 |
| 20260508121504 | 17 | 100 | 14.5 | 14.5 | 0.00 | 0.00 | 0.00 | 45 | 1016.9 |
| 20260508120504 | 17 | 100 | 14.5 | 19.3 | 0.00 | 0.00 | 0.00 | 45 | 1016.9 |
| 20260508114504 | 16 | 110 | 19.3 | 19.3 | 0.00 | 0.00 | 0.00 | 44 | 1016.9 |
| 20260508111504 | 16 | 110 | 19.3 | 19.3 | 0.00 | 0.00 | 0.00 | 44 | 1016.9 |
| 20260508105007 | 16 | 130 | 11.3 | 11.3 | 0.00 | 0.00 | 0.00 | 47 | 1016.9 |
| 20260508103505 | 16 | 130 | 11.3 | 11.3 | 0.00 | 0.00 | 0.00 | 47 | 1016.9 |
| 20260508100004 | 16 | 130 | 11.3 | 11.3 | 0.00 | 0.00 | 0.00 | 47 | 1016.9 |
| 20260508094007 | 13 | 120 | 9.7 | 9.7 | 0.00 | 0.00 | 0.00 | 54 | 1016.9 |
| 20260508093504 | 13 | 120 | 9.7 | 9.7 | 0.00 | 0.00 | 0.00 | 54 | 1016.9 |
| 20260508092007 | 13 | 120 | 9.7 | 9.7 | 0.00 | 0.00 | 0.00 | 54 | 1016.9 |
| 20260508084008 | 13 | 120 | 4.8 | 4.8 | 0.00 | 0.00 | 0.00 | 62 | 1016.9 |
| 20260508082503 | 13 | 120 | 4.8 | 4.8 | 0.00 | 0.00 | 0.00 | 62 | 1016.9 |
| 20260508075007 | 12 | 120 | 4.8 | 4.8 | 0.00 | 0.00 | 0.00 | 76 | 1015.9 |
| 20260508073504 | 12 | 120 | 4.8 | 4.8 | 0.00 | 0.00 | 0.00 | 76 | 1015.9 |
| 20260508072007 | 12 | 120 | 4.8 | 4.8 | 0.00 | 0.00 | 0.00 | 76 | 1015.9 |
| 20260508063504 | 12 | 120 | 9.7 | 9.7 | 0.00 | 0.00 | 0.00 | 66 | 1014.9 |
| 20260508062007 | 12 | 120 | 9.7 | 9.7 | 0.00 | 0.00 | 0.00 | 66 | 1014.9 |
| 20260508061504 | 12 | 120 | 9.7 | 9.7 | 0.00 | 0.00 | 0.00 | 66 | 1014.9 |
| 20260508060006 | 12 | 120 | 9.7 | 9.7 | 0.00 | 0.00 | 0.00 | 66 | 1014.9 |